{"data":{"norad_id":51804,"intl_designator":"2022-017AN","name":"STARLINK-3601","alt_names":[],"object_type":"PAYLOAD","status":"ACTIVE","operator":null,"country":"US","launch_date":"2022-02-25","launch_site_code":"AFWTR","launch_vehicle":null,"mission":null,"orbit_class":"UNKNOWN","rcs_meters":null,"size_class":null,"mass_kg":null,"dimensions":null,"purposes":["comms"],"wikipedia_slug":null,"has_3d_model":false,"image_url":null,"decayed_at":null,"tle_current":{"epoch":"2026-09-20T02:33:22.720608Z","epoch_age_seconds":85903,"freshness":"FRESH","line1":"1 51804U 22017AN  26263.10651297  .00000243  00000+0  18324-4 0  9990","line2":"2 51804  53.1604 165.2104 0001244  96.1657 263.9488 15.34392073253651","mean_motion":15.34392073,"eccentricity":0.0001244,"inclination_deg":53.1604,"raan_deg":165.2104,"arg_perigee_deg":96.1657,"mean_anomaly_deg":263.9488,"bstar":1.8324e-5,"rev_number":25365,"period_min":93.84824291907,"perigee_km":461.87579756623,"apogee_km":463.57780447992,"semimajor_km":6840.8638010231,"source":"CELESTRAK","updated_at":"2026-09-20T09:00:39.942149Z"}}}